GAOFEN-5 01

Last updated on Sun Aug 31 2025 00:02:31 GMT+0000 (Coordinated Universal Time)

1 43461U 18043A 25242.15760305 .00000675 00000+0 15005-3 0 9997 2 43461 98.4132 203.4137 0000467 245.9767 114.1384 14.60230453389217
UTC large
Height (km)
Speed (km/s)
/
Latitude / Longitude
Inclination (degrees)
Orbital Period (minutes)
Azimuth
Elevation
Range (km)
Doppler Factor

Next 0 passes for location: London (51.5072 / 0.1276)

Sorry there are no passes over London.